Time,TemperatureF,DewpointF,PressureIn,WindDirection,WindDirectionDegrees,WindSpeedMPH,WindSpeedGustMPH,Humidity,HourlyPrecipIn,Conditions,Clouds,dailyrainin,SoftwareType,DateUTC
2013-01-14 00:03:00,53.5,51.0,29.93,West,261,1.0,-999.0,92,-99.99,,,0.00,weatherlink.com 1.10,2013-01-14 05:03:00,
2013-01-14 00:18:00,53.5,51.0,29.93,South,171,2.0,-999.0,92,-99.99,,,0.00,weatherlink.com 1.10,2013-01-14 05:18:00,
2013-01-14 00:33:00,53.6,51.0,29.93,WSW,257,0.0,-999.0,92,-99.99,,,0.00,weatherlink.com 1.10,2013-01-14 05:33:00,
2013-01-14 00:48:00,53.6,51.0,29.92,South,178,0.0,-999.0,92,-99.99,,,0.00,weatherlink.com 1.10,2013-01-14 05:48:00,
2013-01-14 01:03:00,53.6,51.0,29.92,SSW,206,0.0,-999.0,92,-99.99,,,0.00,weatherlink.com 1.10,2013-01-14 06:03:00,
2013-01-14 01:18:00,53.5,52.0,29.92,West,265,0.0,-999.0,93,-99.99,,,0.00,weatherlink.com 1.10,2013-01-14 06:18:00,
2013-01-14 01:33:00,53.4,52.0,29.92,SSE,163,5.0,-999.0,93,-99.99,,,0.00,weatherlink.com 1.10,2013-01-14 06:33:00,
2013-01-14 01:48:00,53.4,52.0,29.93,SSW,204,1.0,-999.0,93,-99.99,,,0.00,weatherlink.com 1.10,2013-01-14 06:48:00,
2013-01-14 02:03:00,53.4,52.0,29.93,SW,220,0.0,-999.0,93,-99.99,,,0.00,weatherlink.com 1.10,2013-01-14 07:03:00,
2013-01-14 02:18:00,53.3,51.0,29.93,WSW,252,0.0,-999.0,93,-99.99,,,0.00,weatherlink.com 1.10,2013-01-14 07:18:00,
2013-01-14 02:33:00,53.2,51.0,29.93,West,273,0.0,-999.0,93,-99.99,,,0.00,weatherlink.com 1.10,2013-01-14 07:33:00,
2013-01-14 02:48:00,53.2,52.0,29.92,West,262,1.0,-999.0,94,-99.99,,,0.00,weatherlink.com 1.10,2013-01-14 07:48:00,
2013-01-14 03:03:00,53.1,52.0,29.92,South,174,1.0,-999.0,94,-99.99,,,0.00,weatherlink.com 1.10,2013-01-14 08:03:00,
2013-01-14 03:18:00,53.0,51.0,29.91,SW,222,1.0,-999.0,94,-99.99,,,0.00,weatherlink.com 1.10,2013-01-14 08:18:00,
2013-01-14 03:33:00,52.9,52.0,29.91,West,267,3.0,-999.0,95,-99.99,,,0.00,weatherlink.com 1.10,2013-01-14 08:33:00,
2013-01-14 03:48:00,52.8,52.0,29.89,NNW,343,0.0,-999.0,95,-99.99,,,0.00,weatherlink.com 1.10,2013-01-14 08:48:00,
2013-01-14 04:03:00,52.7,51.0,29.89,WSW,257,3.0,-999.0,95,-99.99,,,0.00,weatherlink.com 1.10,2013-01-14 09:03:00,
2013-01-14 04:18:00,52.7,51.0,29.88,WNW,291,0.0,-999.0,95,-99.99,,,0.00,weatherlink.com 1.10,2013-01-14 09:18:00,
2013-01-14 04:33:00,52.6,51.0,29.88,SW,220,2.0,-999.0,95,-99.99,,,0.00,weatherlink.com 1.10,2013-01-14 09:33:00,
2013-01-14 04:48:00,52.6,51.0,29.88,SSW,193,0.0,-999.0,95,-99.99,,,0.00,weatherlink.com 1.10,2013-01-14 09:48:00,
2013-01-14 05:03:00,52.6,51.0,29.88,South,188,2.0,-999.0,94,-99.99,,,0.00,weatherlink.com 1.10,2013-01-14 10:03:00,
2013-01-14 05:18:00,52.6,51.0,29.88,West,270,0.0,-999.0,94,-99.99,,,0.00,weatherlink.com 1.10,2013-01-14 10:18:00,
2013-01-14 05:33:00,52.6,51.0,29.88,NW,306,5.0,-999.0,93,-99.99,,,0.00,weatherlink.com 1.10,2013-01-14 10:33:00,
2013-01-14 05:48:00,52.7,51.0,29.87,NE,47,0.0,-999.0,93,-99.99,,,0.00,weatherlink.com 1.10,2013-01-14 10:48:00,
2013-01-14 06:03:00,52.8,51.0,29.88,WSW,240,1.0,-999.0,93,-99.99,,,0.00,weatherlink.com 1.10,2013-01-14 11:03:00,
2013-01-14 06:18:00,52.9,51.0,29.89,West,273,0.0,-999.0,93,-99.99,,,0.00,weatherlink.com 1.10,2013-01-14 11:18:00,
2013-01-14 06:33:00,52.9,51.0,29.87,South,179,1.0,-999.0,93,-99.99,,,0.00,weatherlink.com 1.10,2013-01-14 11:33:00,
2013-01-14 06:48:00,53.0,51.0,29.85,WSW,248,2.0,-999.0,93,-99.99,,,0.00,weatherlink.com 1.10,2013-01-14 11:48:00,
2013-01-14 07:03:00,53.0,51.0,29.83,South,185,0.0,-999.0,94,-99.99,,,0.00,weatherlink.com 1.10,2013-01-14 12:03:00,
2013-01-14 07:18:00,53.4,52.0,29.81,SSE,150,4.0,-999.0,94,-99.99,,,0.00,weatherlink.com 1.10,2013-01-14 12:18:00,
2013-01-14 07:33:00,53.8,52.0,29.80,South,182,2.0,-999.0,95,-99.99,,,0.00,weatherlink.com 1.10,2013-01-14 12:33:00,
2013-01-14 07:48:00,54.5,53.0,29.86,NW,309,1.0,-999.0,94,-99.99,,,0.00,weatherlink.com 1.10,2013-01-14 12:48:00,
2013-01-14 08:03:00,54.5,53.0,29.89,NNW,331,3.0,-999.0,94,-99.99,,,0.00,weatherlink.com 1.10,2013-01-14 13:03:00,
2013-01-14 08:18:00,54.5,53.0,29.90,WNW,302,2.0,-999.0,93,-99.99,,,0.00,weatherlink.com 1.10,2013-01-14 13:18:00,
2013-01-14 08:33:00,54.5,53.0,29.89,WNW,286,0.0,-999.0,93,-99.99,,,0.00,weatherlink.com 1.10,2013-01-14 13:33:00,
2013-01-14 08:48:00,54.8,53.0,29.90,West,277,1.0,-999.0,93,-99.99,,,0.00,weatherlink.com 1.10,2013-01-14 13:48:00,
2013-01-14 09:03:00,54.9,53.0,29.92,SW,225,0.0,-999.0,93,-99.99,,,0.00,weatherlink.com 1.10,2013-01-14 14:03:00,
2013-01-14 09:18:00,55.1,53.0,29.92,NNW,338,5.0,-999.0,92,-99.99,,,0.00,weatherlink.com 1.10,2013-01-14 14:18:00,
2013-01-14 09:33:00,55.2,53.0,29.93,WSW,244,0.0,-999.0,92,-99.99,,,0.00,weatherlink.com 1.10,2013-01-14 14:33:00,
2013-01-14 09:48:00,55.5,53.0,29.94,NW,307,3.0,-999.0,91,-99.99,,,0.00,weatherlink.com 1.10,2013-01-14 14:48:00,
2013-01-14 10:03:00,55.8,53.0,29.94,West,266,0.0,-999.0,91,-99.99,,,0.00,weatherlink.com 1.10,2013-01-14 15:03:00,
2013-01-14 10:18:00,56.1,53.0,29.94,SW,217,4.0,-999.0,90,-99.99,,,0.00,weatherlink.com 1.10,2013-01-14 15:18:00,
2013-01-14 10:33:00,56.4,54.0,29.94,WSW,252,3.0,-999.0,90,-99.99,,,0.00,weatherlink.com 1.10,2013-01-14 15:33:00,
2013-01-14 10:48:00,57.0,54.0,29.93,SW,222,3.0,-999.0,88,-99.99,,,0.00,weatherlink.com 1.10,2013-01-14 15:48:00,
2013-01-14 11:03:00,57.3,53.0,29.93,NW,312,2.0,-999.0,86,-99.99,,,0.00,weatherlink.com 1.10,2013-01-14 16:03:00,
2013-01-14 11:18:00,57.6,53.0,29.93,West,277,3.0,-999.0,84,-99.99,,,0.00,weatherlink.com 1.10,2013-01-14 16:18:00,
2013-01-14 11:33:00,58.2,53.0,29.93,NW,311,4.0,-999.0,83,-99.99,,,0.00,weatherlink.com 1.10,2013-01-14 16:33:00,
2013-01-14 11:48:00,59.3,53.0,29.92,SSW,209,5.0,-999.0,79,-99.99,,,0.00,weatherlink.com 1.10,2013-01-14 16:48:00,
2013-01-14 12:03:00,59.3,52.0,29.93,NW,326,6.0,-999.0,77,-99.99,,,0.00,weatherlink.com 1.10,2013-01-14 17:03:00,
2013-01-14 12:18:00,59.9,52.0,29.92,SW,229,3.0,-999.0,74,-99.99,,,0.00,weatherlink.com 1.10,2013-01-14 17:18:00,
2013-01-14 12:33:00,60.7,51.0,29.91,NW,306,7.0,-999.0,70,-99.99,,,0.00,weatherlink.com 1.10,2013-01-14 17:33:00,
2013-01-14 12:48:00,61.9,50.0,29.91,NW,323,1.0,-999.0,65,-99.99,,,0.00,weatherlink.com 1.10,2013-01-14 17:48:00,
2013-01-14 13:03:00,62.0,50.0,29.92,NNW,348,5.0,-999.0,64,-99.99,,,0.00,weatherlink.com 1.10,2013-01-14 18:03:00,
2013-01-14 13:18:00,62.3,49.0,29.92,West,273,0.0,-999.0,63,-99.99,,,0.00,weatherlink.com 1.10,2013-01-14 18:18:00,
2013-01-14 13:33:00,62.2,49.0,29.93,NW,326,3.0,-999.0,63,-99.99,,,0.00,weatherlink.com 1.10,2013-01-14 18:33:00,
2013-01-14 13:48:00,61.9,47.0,29.94,WSW,242,6.0,-999.0,59,-99.99,,,0.00,weatherlink.com 1.10,2013-01-14 18:48:00,
2013-01-14 14:03:00,61.6,46.0,29.95,NNW,337,9.0,-999.0,56,-99.99,,,0.00,weatherlink.com 1.10,2013-01-14 19:03:00,
2013-01-14 14:18:00,61.5,44.0,29.95,NW,309,0.0,-999.0,53,-99.99,,,0.00,weatherlink.com 1.10,2013-01-14 19:18:00,
2013-01-14 14:33:00,61.7,43.0,29.96,NNW,328,2.0,-999.0,50,-99.99,,,0.00,weatherlink.com 1.10,2013-01-14 19:33:00,
2013-01-14 14:48:00,61.1,41.0,29.98,NW,312,0.0,-999.0,47,-99.99,,,0.00,weatherlink.com 1.10,2013-01-14 19:48:00,
2013-01-14 15:03:00,60.7,40.0,29.99,North,5,2.0,-999.0,46,-99.99,,,0.00,weatherlink.com 1.10,2013-01-14 20:03:00,
2013-01-14 15:18:00,59.7,39.0,29.99,WNW,298,1.0,-999.0,47,-99.99,,,0.00,weatherlink.com 1.10,2013-01-14 20:18:00,
2013-01-14 15:33:00,58.8,38.0,30.01,NNW,333,3.0,-999.0,47,-99.99,,,0.00,weatherlink.com 1.10,2013-01-14 20:33:00,
2013-01-14 15:48:00,57.9,39.0,30.02,NNW,331,3.0,-999.0,50,-99.99,,,0.00,weatherlink.com 1.10,2013-01-14 20:48:00,
2013-01-14 16:03:00,56.9,38.0,30.02,West,274,10.0,-999.0,49,-99.99,,,0.00,weatherlink.com 1.10,2013-01-14 21:03:00,
2013-01-14 16:18:00,55.9,37.0,30.03,NW,318,6.0,-999.0,49,-99.99,,,0.00,weatherlink.com 1.10,2013-01-14 21:18:00,
2013-01-14 16:33:00,55.0,36.0,30.04,NW,317,3.0,-999.0,49,-99.99,,,0.00,weatherlink.com 1.10,2013-01-14 21:33:00,
2013-01-14 16:48:00,54.2,36.0,30.05,WNW,299,0.0,-999.0,51,-99.99,,,0.00,weatherlink.com 1.10,2013-01-14 21:48:00,
2013-01-14 17:03:00,53.5,37.0,30.05,NW,316,0.0,-999.0,55,-99.99,,,0.00,weatherlink.com 1.10,2013-01-14 22:03:00,
2013-01-14 17:18:00,52.7,37.0,30.06,NW,323,0.0,-999.0,56,-99.99,,,0.00,weatherlink.com 1.10,2013-01-14 22:18:00,
2013-01-14 17:34:00,51.7,37.0,30.07,NNW,333,0.0,-999.0,57,-99.99,,,0.00,weatherlink.com 1.10,2013-01-14 22:34:00,
2013-01-14 17:48:00,50.9,37.0,30.06,NNW,333,0.0,-999.0,59,-99.99,,,0.00,weatherlink.com 1.10,2013-01-14 22:48:00,
2013-01-14 18:03:00,50.0,36.0,30.07,NNW,328,0.0,-999.0,60,-99.99,,,0.00,weatherlink.com 1.10,2013-01-14 23:03:00,
2013-01-14 18:18:00,49.3,37.0,30.07,NNW,328,0.0,-999.0,62,-99.99,,,0.00,weatherlink.com 1.10,2013-01-14 23:18:00,
2013-01-14 18:33:00,48.7,36.0,30.07,NNW,329,0.0,-999.0,62,-99.99,,,0.00,weatherlink.com 1.10,2013-01-14 23:33:00,
2013-01-14 18:48:00,48.3,36.0,30.07,NNW,328,0.0,-999.0,63,-99.99,,,0.00,weatherlink.com 1.10,2013-01-14 23:48:00,
2013-01-14 19:03:00,47.8,36.0,30.09,NNW,328,0.0,-999.0,64,-99.99,,,0.00,weatherlink.com 1.10,2013-01-15 00:03:00,
2013-01-14 19:19:00,47.4,36.0,30.10,NW,316,2.0,-999.0,65,-99.99,,,0.00,weatherlink.com 1.10,2013-01-15 00:19:00,
2013-01-14 19:33:00,47.6,35.0,30.10,NW,309,2.0,-999.0,63,-99.99,,,0.00,weatherlink.com 1.10,2013-01-15 00:33:00,
2013-01-14 19:48:00,47.5,34.0,30.10,WNW,302,0.0,-999.0,60,-99.99,,,0.00,weatherlink.com 1.10,2013-01-15 00:48:00,
2013-01-14 20:04:00,47.6,32.0,30.11,NNE,28,4.0,-999.0,55,-99.99,,,0.00,weatherlink.com 1.10,2013-01-15 01:04:00,
2013-01-14 20:18:00,47.4,29.0,30.12,NNW,339,8.0,-999.0,50,-99.99,,,0.00,weatherlink.com 1.10,2013-01-15 01:18:00,
2013-01-14 20:34:00,47.0,30.0,30.13,North,360,2.0,-999.0,51,-99.99,,,0.00,weatherlink.com 1.10,2013-01-15 01:34:00,
2013-01-14 20:49:00,46.7,29.0,30.13,NW,321,0.0,-999.0,51,-99.99,,,0.00,weatherlink.com 1.10,2013-01-15 01:49:00,
2013-01-14 21:03:00,46.4,29.0,30.14,NNW,331,5.0,-999.0,52,-99.99,,,0.00,weatherlink.com 1.10,2013-01-15 02:03:00,
2013-01-14 21:18:00,45.9,29.0,30.14,NNW,331,6.0,-999.0,53,-99.99,,,0.00,weatherlink.com 1.10,2013-01-15 02:18:00,
2013-01-14 21:33:00,45.5,30.0,30.13,NW,306,0.0,-999.0,54,-99.99,,,0.00,weatherlink.com 1.10,2013-01-15 02:33:00,
2013-01-14 21:48:00,45.2,30.0,30.12,NW,320,2.0,-999.0,55,-99.99,,,0.00,weatherlink.com 1.10,2013-01-15 02:48:00,
2013-01-14 22:03:00,44.9,29.0,30.13,NNW,341,2.0,-999.0,55,-99.99,,,0.00,weatherlink.com 1.10,2013-01-15 03:03:00,
2013-01-14 22:18:00,44.6,30.0,30.14,NNW,327,5.0,-999.0,56,-99.99,,,0.00,weatherlink.com 1.10,2013-01-15 03:18:00,
2013-01-14 22:33:00,44.3,29.0,30.15,WNW,302,2.0,-999.0,56,-99.99,,,0.00,weatherlink.com 1.10,2013-01-15 03:33:00,
2013-01-14 22:48:00,44.0,29.0,30.15,NNW,334,2.0,-999.0,56,-99.99,,,0.00,weatherlink.com 1.10,2013-01-15 03:48:00,
2013-01-14 23:03:00,43.7,29.0,30.16,NW,313,1.0,-999.0,57,-99.99,,,0.00,weatherlink.com 1.10,2013-01-15 04:03:00,
2013-01-14 23:18:00,43.4,28.0,30.18,NNW,333,0.0,-999.0,56,-99.99,,,0.00,weatherlink.com 1.10,2013-01-15 04:18:00,
2013-01-14 23:33:00,43.1,28.0,30.18,NW,305,2.0,-999.0,56,-99.99,,,0.00,weatherlink.com 1.10,2013-01-15 04:33:00,
2013-01-14 23:48:00,42.8,28.0,30.19,NW,324,0.0,-999.0,56,-99.99,,,0.00,weatherlink.com 1.10,2013-01-15 04:48:00,